Flag for France Weather past 2 weeks in Amsterdam Island, French Southern Territories, France

Now
61 °F

Refreshingly cool.


Feels Like: 61 °F
Forecast: 58 / 62 °F
Wind: 20 mph from South

Location: Martin De Vivies Ile Amsterdam

Current Time: Feb 1, 2015 at 1:15:47 PM

Latest Report: Feb 1, 2015 at 12:00 PM


Visibility: N/A

Pressure: 29.98 "Hg

Humidity: 52%

Dew point: 43 °F

Location of Amsterdam IslandLocation

Historic Weather in Amsterdam Island — Graph

°F

Amsterdam Island temperature yesterday

Maximum temperature yesterday: 65 °F (at 12:00 PM)
Minimum temperature yesterday: 55 °F (at 11:00 PM)
Average temperature yesterday: 61 °F

Past Weeks' High & Low Weather Summary

 TemperatureHumidityPressure
High75 °F (Jan 30, 12:00 PM)95% (Jan 23, 3:00 PM)30.36 "Hg (Jan 23, 3:00 PM)
Low48 °F (Jan 18, 3:00 AM)43% (Jan 18, 2:00 PM)29.83 "Hg (Jan 23, 2:00 PM)
Average63 °F71%30.02 "Hg
* Reported Jan 17 12:00 Noon — Feb 1 12:00 Noon, Amsterdam Island, Weather by CustomWeather, © 2014

Note: Actual official high and low records may vary slightly from our data, if they occured in-between our weather recording intervals... More about our weather records

Advertising

Amsterdam Island weather history for previous 24 hours

 ConditionsComfort  
Time TempWeatherWind HumidityBarometerVisibility
12:00 PM
Feb 1
61 °FRefreshingly cool.20 mph52%29.98 "HgN/A
11:00 AM61 °FRefreshingly cool.20 mph55%29.99 "HgN/A
10:00 AM59 °FRefreshingly cool.20 mph59%29.99 "HgN/A
9:00 AM58 °FCool.17 mph65%29.99 "HgN/A
8:00 AM57 °FCool.15 mph69%29.98 "HgN/A
7:00 AM57 °FCool.14 mph73%29.98 "HgN/A
6:00 AM56 °FCool.15 mph78%29.96 "HgN/A
5:00 AM52 °FCool.15 mph82%29.93 "HgN/A
4:00 AM54 °FCool.12 mph75%29.93 "HgN/A
3:00 AM55 °FCool.12 mph77%29.93 "HgN/A
1:00 AM54 °FCool.9 mph81%29.95 "HgN/A
12:00 AM55 °FCool.14 mph82%29.96 "HgN/A
11:00 PM
Jan 31
55 °FCool.8 mph75%29.97 "HgN/A
10:00 PM57 °FCool.8 mph68%29.97 "HgN/A
9:00 PM58 °FCool.8 mph66%29.98 "HgN/A
8:00 PM58 °FCool.12 mph62%29.97 "HgN/A
7:00 PM58 °FCool.10 mph62%29.96 "HgN/A
6:00 PM60 °FRefreshingly cool.12 mph56%29.97 "HgN/A
5:00 PM62 °FCool.17 mph61%29.96 "HgN/A
4:00 PM64 °FMild.13 mph53%29.96 "HgN/A
3:00 PM62 °FMild.14 mph55%29.96 "HgN/A
2:00 PM65 °FMild.17 mph52%29.97 "HgN/A
1:00 PM65 °FMild.15 mph49%29.97 "HgN/A
Weather by CustomWeather, © 2014

See weather overviewHow to use our weather pages